Location: Albany
(35.0170°S, 117.8920°E)
Time: 01:51:59
(UTC+08:00)

Explorer 7 - Pass Details

Date: 31 January 2021
Orbit: 484 x 677 km, 50.3° (Epoch: 01 March)

Event Time Altitude Azimuth Distance (km) Brightness Sun altitude
Rises 11:55:51 0° 348° (NNW) 2,974 10.8 71.4°
Reaches altitude 10° 11:58:37 10° 3° (N) 2,089 10.2 71.6°
Maximum altitude 12:02:17 22° 52° (NE) 1,488 9.6 71.8°
Drops below altitude 10° 12:06:00 10° 101° (E) 2,129 10.0 72.0°
Sets 12:08:50 0° 116° (ESE) 3,046 10.6 72.1°
